Time,TemperatureF,DewpointF,PressureIn,WindDirection,WindDirectionDegrees,WindSpeedMPH,WindSpeedGustMPH,Humidity,HourlyPrecipIn,Conditions,Clouds,dailyrainin,SoftwareType,DateUTC
2013-03-02 00:00:00,28.0,-99.9,0.00,NNE,22,0.0,0.0,-99,0.00,NA,NA,-99.99,WeatherLink_script,2013-03-02 05:00:00,
2013-03-02 00:05:00,27.7,-99.9,0.00,NNE,24,0.0,0.0,-99,0.00,NA,NA,-99.99,WeatherLink_script,2013-03-02 05:05:00,
2013-03-02 00:10:00,27.6,-99.9,0.00,NNE,25,0.0,0.0,-99,0.00,NA,NA,-99.99,WeatherLink_script,2013-03-02 05:10:00,
2013-03-02 00:15:00,27.8,-99.9,0.00,NNE,22,0.0,0.0,-99,0.00,NA,NA,-99.99,WeatherLink_script,2013-03-02 05:15:00,
2013-03-02 00:21:00,28.1,-99.9,0.00,NNE,22,0.0,0.0,-99,0.00,NA,NA,-99.99,WeatherLink_script,2013-03-02 05:21:00,
2013-03-02 00:26:00,28.1,-99.9,0.00,NNE,22,0.0,0.0,-99,0.00,NA,NA,-99.99,WeatherLink_script,2013-03-02 05:26:00,
2013-03-02 00:32:00,28.0,-99.9,0.00,NNE,22,0.0,0.0,-99,0.00,NA,NA,-99.99,WeatherLink_script,2013-03-02 05:32:00,
2013-03-02 00:37:00,27.8,-99.9,0.00,NNE,22,0.0,0.0,-99,0.00,NA,NA,-99.99,WeatherLink_script,2013-03-02 05:37:00,
2013-03-02 00:42:00,27.6,-99.9,0.00,NNE,22,0.0,0.0,-99,0.00,NA,NA,-99.99,WeatherLink_script,2013-03-02 05:42:00,
2013-03-02 00:48:00,27.7,-99.9,0.00,NNE,22,0.0,0.0,-99,0.00,NA,NA,-99.99,WeatherLink_script,2013-03-02 05:48:00,
2013-03-02 00:53:00,28.1,-99.9,0.00,NNE,22,0.0,0.0,-99,0.00,NA,NA,-99.99,WeatherLink_script,2013-03-02 05:53:00,
2013-03-02 00:58:00,28.1,-99.9,0.00,NNE,22,0.0,0.0,-99,0.00,NA,NA,-99.99,WeatherLink_script,2013-03-02 05:58:00,
2013-03-02 01:04:00,27.9,-99.9,0.00,NNE,22,0.0,0.0,-99,0.00,NA,NA,-99.99,WeatherLink_script,2013-03-02 06:04:00,
2013-03-02 01:09:00,28.0,-99.9,0.00,NNE,22,0.0,0.0,-99,0.00,NA,NA,-99.99,WeatherLink_script,2013-03-02 06:09:00,
2013-03-02 01:14:00,28.0,-99.9,0.00,NNE,22,0.0,0.0,-99,0.00,NA,NA,-99.99,WeatherLink_script,2013-03-02 06:14:00,
2013-03-02 01:20:00,28.0,-99.9,0.00,NNE,22,0.0,0.0,-99,0.00,NA,NA,-99.99,WeatherLink_script,2013-03-02 06:20:00,
2013-03-02 01:25:00,28.0,-99.9,0.00,NNE,22,0.0,0.0,-99,0.00,NA,NA,-99.99,WeatherLink_script,2013-03-02 06:25:00,
2013-03-02 01:30:00,28.1,-99.9,0.00,NNE,22,0.0,0.0,-99,0.00,NA,NA,-99.99,WeatherLink_script,2013-03-02 06:30:00,
2013-03-02 01:36:00,28.0,-99.9,0.00,NNE,22,0.0,0.0,-99,0.00,NA,NA,-99.99,WeatherLink_script,2013-03-02 06:36:00,
2013-03-02 01:41:00,28.0,-99.9,0.00,NNE,22,0.0,0.0,-99,0.00,NA,NA,-99.99,WeatherLink_script,2013-03-02 06:41:00,
2013-03-02 01:46:00,28.0,-99.9,0.00,NNE,22,0.0,0.0,-99,0.00,NA,NA,-99.99,WeatherLink_script,2013-03-02 06:46:00,
2013-03-02 01:52:00,27.9,-99.9,0.00,NNE,22,0.0,0.0,-99,0.00,NA,NA,-99.99,WeatherLink_script,2013-03-02 06:52:00,
2013-03-02 01:57:00,28.0,-99.9,0.00,NNE,22,0.0,0.0,-99,0.00,NA,NA,-99.99,WeatherLink_script,2013-03-02 06:57:00,
2013-03-02 02:02:00,28.0,-99.9,0.00,NNE,22,0.0,0.0,-99,0.00,NA,NA,-99.99,WeatherLink_script,2013-03-02 07:02:00,
2013-03-02 02:08:00,28.0,-99.9,0.00,NNE,22,0.0,0.0,-99,0.00,NA,NA,-99.99,WeatherLink_script,2013-03-02 07:08:00,
2013-03-02 02:13:00,28.2,-99.9,0.00,NNE,24,0.0,0.0,-99,0.00,NA,NA,-99.99,WeatherLink_script,2013-03-02 07:13:00,
2013-03-02 02:18:00,28.3,-99.9,0.00,NNE,22,0.3,1.0,-99,0.00,NA,NA,-99.99,WeatherLink_script,2013-03-02 07:18:00,
2013-03-02 02:23:00,28.4,-99.9,0.00,NNE,23,3.1,5.0,-99,0.00,NA,NA,-99.99,WeatherLink_script,2013-03-02 07:23:00,
2013-03-02 02:28:00,29.0,-99.9,0.00,NNE,22,2.8,6.0,-99,0.00,NA,NA,-99.99,WeatherLink_script,2013-03-02 07:28:00,
2013-03-02 02:34:00,29.3,-99.9,0.00,NNE,22,0.9,6.0,-99,0.00,NA,NA,-99.99,WeatherLink_script,2013-03-02 07:34:00,
2013-03-02 02:39:00,29.4,-99.9,0.00,NNE,22,3.1,6.0,-99,0.00,NA,NA,-99.99,WeatherLink_script,2013-03-02 07:39:00,
2013-03-02 02:44:00,29.4,-99.9,0.00,NNE,22,3.9,7.0,-99,0.00,NA,NA,-99.99,WeatherLink_script,2013-03-02 07:44:00,
2013-03-02 02:50:00,29.4,-99.9,0.00,NNE,22,3.3,7.0,-99,0.00,NA,NA,-99.99,WeatherLink_script,2013-03-02 07:50:00,
2013-03-02 02:55:00,29.3,-99.9,0.00,NNE,22,2.7,7.0,-99,0.00,NA,NA,-99.99,WeatherLink_script,2013-03-02 07:55:00,
2013-03-02 03:00:00,29.2,-99.9,0.00,NNE,22,2.6,4.0,-99,0.00,NA,NA,-99.99,WeatherLink_script,2013-03-02 08:00:00,
2013-03-02 03:06:00,29.0,-99.9,0.00,NNE,22,2.1,7.0,-99,0.00,NA,NA,-99.99,WeatherLink_script,2013-03-02 08:06:00,
2013-03-02 03:11:00,29.0,-99.9,0.00,NNE,22,3.9,7.0,-99,0.00,NA,NA,-99.99,WeatherLink_script,2013-03-02 08:11:00,
2013-03-02 03:16:00,28.9,-99.9,0.00,NNE,22,2.6,7.0,-99,0.00,NA,NA,-99.99,WeatherLink_script,2013-03-02 08:16:00,
2013-03-02 03:22:00,29.0,-99.9,0.00,NNE,22,2.3,4.0,-99,0.00,NA,NA,-99.99,WeatherLink_script,2013-03-02 08:22:00,
2013-03-02 03:27:00,29.0,-99.9,0.00,NNE,22,3.0,4.0,-99,0.00,NA,NA,-99.99,WeatherLink_script,2013-03-02 08:27:00,
2013-03-02 03:33:00,28.8,-99.9,0.00,NNE,22,0.6,4.0,-99,0.00,NA,NA,-99.99,WeatherLink_script,2013-03-02 08:33:00,
2013-03-02 03:38:00,28.2,-99.9,0.00,NNE,22,1.3,4.0,-99,0.00,NA,NA,-99.99,WeatherLink_script,2013-03-02 08:38:00,
2013-03-02 03:43:00,28.0,-99.9,0.00,NNE,22,0.8,4.0,-99,0.00,NA,NA,-99.99,WeatherLink_script,2013-03-02 08:43:00,
2013-03-02 03:49:00,28.1,-99.9,0.00,NNE,22,0.7,1.0,-99,0.00,NA,NA,-99.99,WeatherLink_script,2013-03-02 08:49:00,
2013-03-02 03:54:00,28.1,-99.9,0.00,NNE,22,0.7,2.0,-99,0.00,NA,NA,-99.99,WeatherLink_script,2013-03-02 08:54:00,
2013-03-02 03:59:00,27.9,-99.9,0.00,NNE,22,1.8,2.0,-99,0.00,NA,NA,-99.99,WeatherLink_script,2013-03-02 08:59:00,
2013-03-02 04:05:00,27.9,-99.9,0.00,NNE,22,1.5,3.0,-99,0.00,NA,NA,-99.99,WeatherLink_script,2013-03-02 09:05:00,
2013-03-02 04:10:00,27.8,-99.9,0.00,NNE,22,0.8,3.0,-99,0.00,NA,NA,-99.99,WeatherLink_script,2013-03-02 09:10:00,
2013-03-02 04:16:00,28.0,-99.9,0.00,NNE,22,1.1,3.0,-99,0.00,NA,NA,-99.99,WeatherLink_script,2013-03-02 09:16:00,
2013-03-02 04:21:00,27.8,-99.9,0.00,NNE,22,0.1,0.0,-99,0.00,NA,NA,-99.99,WeatherLink_script,2013-03-02 09:21:00,
2013-03-02 04:26:00,27.8,-99.9,0.00,NNE,22,0.4,1.0,-99,0.00,NA,NA,-99.99,WeatherLink_script,2013-03-02 09:26:00,
2013-03-02 04:31:00,28.2,-99.9,0.00,NNE,22,0.9,2.0,-99,0.00,NA,NA,-99.99,WeatherLink_script,2013-03-02 09:31:00,
2013-03-02 04:36:00,28.3,-99.9,0.00,NNE,22,1.0,2.0,-99,0.00,NA,NA,-99.99,WeatherLink_script,2013-03-02 09:36:00,
2013-03-02 04:42:00,28.6,-99.9,0.00,NNE,22,0.4,2.0,-99,0.00,NA,NA,-99.99,WeatherLink_script,2013-03-02 09:42:00,
2013-03-02 04:47:00,28.3,-99.9,0.00,NNE,22,1.5,2.0,-99,0.00,NA,NA,-99.99,WeatherLink_script,2013-03-02 09:47:00,
2013-03-02 04:53:00,28.3,-99.9,0.00,NNE,22,0.7,2.0,-99,0.00,NA,NA,-99.99,WeatherLink_script,2013-03-02 09:53:00,
2013-03-02 04:58:00,28.5,-99.9,0.00,NNE,22,0.2,2.0,-99,0.00,NA,NA,-99.99,WeatherLink_script,2013-03-02 09:58:00,
2013-03-02 05:03:00,28.0,-99.9,0.00,NNE,22,0.0,2.0,-99,0.00,NA,NA,-99.99,WeatherLink_script,2013-03-02 10:03:00,
2013-03-02 05:08:00,27.9,-99.9,0.00,NNE,22,0.0,2.0,-99,0.00,NA,NA,-99.99,WeatherLink_script,2013-03-02 10:08:00,
2013-03-02 05:16:00,27.6,-99.9,0.00,NNE,22,0.0,0.0,-99,0.00,NA,NA,-99.99,WeatherLink_script,2013-03-02 10:16:00,
2013-03-02 05:22:00,27.5,-99.9,0.00,NNE,22,0.0,0.0,-99,0.00,NA,NA,-99.99,WeatherLink_script,2013-03-02 10:22:00,
2013-03-02 05:27:00,27.4,-99.9,0.00,NNE,22,0.0,0.0,-99,0.00,NA,NA,-99.99,WeatherLink_script,2013-03-02 10:27:00,
2013-03-02 05:32:00,27.0,-99.9,0.00,NNE,23,0.0,0.0,-99,0.00,NA,NA,-99.99,WeatherLink_script,2013-03-02 10:32:00,
2013-03-02 05:37:00,26.8,-99.9,0.00,NNE,22,0.0,0.0,-99,0.00,NA,NA,-99.99,WeatherLink_script,2013-03-02 10:37:00,
2013-03-02 05:43:00,26.8,-99.9,0.00,NNE,22,0.0,0.0,-99,0.00,NA,NA,-99.99,WeatherLink_script,2013-03-02 10:43:00,
2013-03-02 05:48:00,26.7,-99.9,0.00,NNE,22,0.0,0.0,-99,0.00,NA,NA,-99.99,WeatherLink_script,2013-03-02 10:48:00,
2013-03-02 05:54:00,26.8,-99.9,0.00,NNE,22,0.0,0.0,-99,0.00,NA,NA,-99.99,WeatherLink_script,2013-03-02 10:54:00,
2013-03-02 05:59:00,26.4,-99.9,0.00,NNE,22,0.0,0.0,-99,0.00,NA,NA,-99.99,WeatherLink_script,2013-03-02 10:59:00,
2013-03-02 06:04:00,26.2,-99.9,0.00,NNE,22,0.0,0.0,-99,0.00,NA,NA,-99.99,WeatherLink_script,2013-03-02 11:04:00,
2013-03-02 06:10:00,26.2,-99.9,0.00,NNE,22,0.0,0.0,-99,0.00,NA,NA,-99.99,WeatherLink_script,2013-03-02 11:10:00,
2013-03-02 06:15:00,26.2,-99.9,0.00,NNE,22,0.0,0.0,-99,0.00,NA,NA,-99.99,WeatherLink_script,2013-03-02 11:15:00,
2013-03-02 06:20:00,26.7,-99.9,0.00,NNE,22,0.0,2.0,-99,0.00,NA,NA,-99.99,WeatherLink_script,2013-03-02 11:20:00,
2013-03-02 06:26:00,27.1,-99.9,0.00,NNE,22,0.0,2.0,-99,0.00,NA,NA,-99.99,WeatherLink_script,2013-03-02 11:26:00,
2013-03-02 06:31:00,27.3,-99.9,0.00,NNE,22,1.8,2.0,-99,0.00,NA,NA,-99.99,WeatherLink_script,2013-03-02 11:31:00,
2013-03-02 06:36:00,27.7,-99.9,0.00,NNE,22,0.0,3.0,-99,0.00,NA,NA,-99.99,WeatherLink_script,2013-03-02 11:36:00,
2013-03-02 06:42:00,28.1,-99.9,0.00,NNE,22,0.2,3.0,-99,0.00,NA,NA,-99.99,WeatherLink_script,2013-03-02 11:42:00,
2013-03-02 06:47:00,28.1,-99.9,0.00,NNE,22,1.0,3.0,-99,0.00,NA,NA,-99.99,WeatherLink_script,2013-03-02 11:47:00,
2013-03-02 06:52:00,28.2,-99.9,0.00,NNE,22,3.1,4.0,-99,0.00,NA,NA,-99.99,WeatherLink_script,2013-03-02 11:52:00,
2013-03-02 06:58:00,28.5,-99.9,0.00,NNE,22,3.1,4.0,-99,0.00,NA,NA,-99.99,WeatherLink_script,2013-03-02 11:58:00,
2013-03-02 07:03:00,28.7,-99.9,0.00,NNE,22,2.9,5.0,-99,0.00,NA,NA,-99.99,WeatherLink_script,2013-03-02 12:03:00,
2013-03-02 07:08:00,29.0,-99.9,0.00,NNE,22,2.2,5.0,-99,0.00,NA,NA,-99.99,WeatherLink_script,2013-03-02 12:08:00,
2013-03-02 07:14:00,29.2,-99.9,0.00,NNE,22,3.7,7.0,-99,0.00,NA,NA,-99.99,WeatherLink_script,2013-03-02 12:14:00,
2013-03-02 07:19:00,29.4,-99.9,0.00,NNE,22,3.4,7.0,-99,0.00,NA,NA,-99.99,WeatherLink_script,2013-03-02 12:19:00,
2013-03-02 07:25:00,29.5,-99.9,0.00,NNE,22,4.2,7.0,-99,0.00,NA,NA,-99.99,WeatherLink_script,2013-03-02 12:25:00,
2013-03-02 07:30:00,29.6,-99.9,0.00,NNE,22,2.4,7.0,-99,0.00,NA,NA,-99.99,WeatherLink_script,2013-03-02 12:30:00,
2013-03-02 07:35:00,29.6,-99.9,0.00,NNE,22,2.5,7.0,-99,0.00,NA,NA,-99.99,WeatherLink_script,2013-03-02 12:35:00,
2013-03-02 07:41:00,29.8,-99.9,0.00,NNE,22,1.2,7.0,-99,0.00,NA,NA,-99.99,WeatherLink_script,2013-03-02 12:41:00,
2013-03-02 07:46:00,29.8,-99.9,0.00,NNE,22,4.1,6.0,-99,0.00,NA,NA,-99.99,WeatherLink_script,2013-03-02 12:46:00,
2013-03-02 07:51:00,30.0,-99.9,0.00,NNE,22,1.1,6.0,-99,0.00,NA,NA,-99.99,WeatherLink_script,2013-03-02 12:51:00,
2013-03-02 07:57:00,30.1,-99.9,0.00,NNE,22,3.3,6.0,-99,0.00,NA,NA,-99.99,WeatherLink_script,2013-03-02 12:57:00,
2013-03-02 08:02:00,30.2,-99.9,0.00,NNE,22,4.3,6.0,-99,0.00,NA,NA,-99.99,WeatherLink_script,2013-03-02 13:02:00,
2013-03-02 08:07:00,30.4,-99.9,0.00,NNE,22,1.0,6.0,-99,0.00,NA,NA,-99.99,WeatherLink_script,2013-03-02 13:07:00,
2013-03-02 08:13:00,30.7,-99.9,0.00,NNE,22,4.3,6.0,-99,0.00,NA,NA,-99.99,WeatherLink_script,2013-03-02 13:13:00,
2013-03-02 08:18:00,30.6,-99.9,0.00,NNE,22,2.6,5.0,-99,0.00,NA,NA,-99.99,WeatherLink_script,2013-03-02 13:18:00,
2013-03-02 08:23:00,30.5,-99.9,0.00,NNE,22,3.0,5.0,-99,0.00,NA,NA,-99.99,WeatherLink_script,2013-03-02 13:23:00,
2013-03-02 08:29:00,30.6,-99.9,0.00,NNE,22,3.7,6.0,-99,0.00,NA,NA,-99.99,WeatherLink_script,2013-03-02 13:29:00,
2013-03-02 08:34:00,30.6,-99.9,0.00,NNE,22,2.8,7.0,-99,0.00,NA,NA,-99.99,WeatherLink_script,2013-03-02 13:34:00,
2013-03-02 08:39:00,30.8,-99.9,0.00,NNE,22,3.8,7.0,-99,0.00,NA,NA,-99.99,WeatherLink_script,2013-03-02 13:39:00,
2013-03-02 08:45:00,30.7,-99.9,0.00,NNE,23,3.9,7.0,-99,0.00,NA,NA,-99.99,WeatherLink_script,2013-03-02 13:45:00,
2013-03-02 08:50:00,30.6,-99.9,0.00,NNE,22,2.3,4.0,-99,0.00,NA,NA,-99.99,WeatherLink_script,2013-03-02 13:50:00,
2013-03-02 08:55:00,30.8,-99.9,0.00,NNE,22,3.6,5.0,-99,0.00,NA,NA,-99.99,WeatherLink_script,2013-03-02 13:55:00,
2013-03-02 09:01:00,30.5,-99.9,0.00,NNE,22,3.1,7.0,-99,0.00,NA,NA,-99.99,WeatherLink_script,2013-03-02 14:01:00,
2013-03-02 09:06:00,30.5,-99.9,0.00,NNE,22,3.7,7.0,-99,0.00,NA,NA,-99.99,WeatherLink_script,2013-03-02 14:06:00,
2013-03-02 09:11:00,31.4,-99.9,0.00,NNE,22,1.2,7.0,-99,0.00,NA,NA,-99.99,WeatherLink_script,2013-03-02 14:11:00,
2013-03-02 09:17:00,30.9,-99.9,0.00,North,9,3.0,5.0,-99,0.00,NA,NA,-99.99,WeatherLink_script,2013-03-02 14:17:00,
2013-03-02 09:22:00,30.3,-99.9,0.00,North,359,4.9,6.0,-99,0.00,NA,NA,-99.99,WeatherLink_script,2013-03-02 14:22:00,
2013-03-02 09:27:00,30.3,-99.9,0.00,North,359,5.3,7.0,-99,0.00,NA,NA,-99.99,WeatherLink_script,2013-03-02 14:27:00,
2013-03-02 09:33:00,30.5,-99.9,0.00,North,359,4.1,7.0,-99,0.00,NA,NA,-99.99,WeatherLink_script,2013-03-02 14:33:00,
2013-03-02 09:38:00,31.0,-99.9,0.00,North,360,3.1,7.0,-99,0.00,NA,NA,-99.99,WeatherLink_script,2013-03-02 14:38:00,
2013-03-02 09:43:00,31.4,-99.9,0.00,North,8,2.4,4.0,-99,0.00,NA,NA,-99.99,WeatherLink_script,2013-03-02 14:43:00,
2013-03-02 09:49:00,31.3,-99.9,0.00,North,349,4.3,7.0,-99,0.00,NA,NA,-99.99,WeatherLink_script,2013-03-02 14:49:00,
2013-03-02 09:54:00,31.5,-99.9,0.00,North,1,1.8,7.0,-99,0.00,NA,NA,-99.99,WeatherLink_script,2013-03-02 14:54:00,
2013-03-02 09:59:00,31.5,-99.9,0.00,NNE,17,3.3,7.0,-99,0.00,NA,NA,-99.99,WeatherLink_script,2013-03-02 14:59:00,
2013-03-02 10:05:00,32.2,-99.9,0.00,NE,37,1.7,7.0,-99,0.00,NA,NA,-99.99,WeatherLink_script,2013-03-02 15:05:00,
2013-03-02 10:10:00,31.8,-99.9,0.00,North,8,4.5,5.0,-99,0.00,NA,NA,-99.99,WeatherLink_script,2013-03-02 15:10:00,
2013-03-02 10:15:00,32.0,-99.9,0.00,NNE,31,2.1,5.0,-99,0.00,NA,NA,-99.99,WeatherLink_script,2013-03-02 15:15:00,
2013-03-02 10:21:00,32.3,-99.9,0.00,North,6,2.7,5.0,-99,0.00,NA,NA,-99.99,WeatherLink_script,2013-03-02 15:21:00,
2013-03-02 10:26:00,32.4,-99.9,0.00,North,3,2.2,2.2,-99,0.00,NA,NA,-99.99,WeatherLink_script,2013-03-02 15:26:00,
2013-03-02 10:31:00,32.2,-99.9,0.00,North,353,2.6,4.0,-99,0.00,NA,NA,-99.99,WeatherLink_script,2013-03-02 15:31:00,
2013-03-02 10:37:00,32.9,-99.9,0.00,North,358,3.0,4.0,-99,0.00,NA,NA,-99.99,WeatherLink_script,2013-03-02 15:37:00,
2013-03-02 10:42:00,32.6,-99.9,0.00,North,359,3.5,5.0,-99,0.00,NA,NA,-99.99,WeatherLink_script,2013-03-02 15:42:00,
2013-03-02 10:47:00,33.2,-99.9,0.00,North,352,3.5,5.0,-99,0.00,NA,NA,-99.99,WeatherLink_script,2013-03-02 15:47:00,
2013-03-02 10:53:00,33.2,-99.9,0.00,North,354,4.4,5.0,-99,0.00,NA,NA,-99.99,WeatherLink_script,2013-03-02 15:53:00,
2013-03-02 10:58:00,32.8,-99.9,0.00,North,351,4.6,6.0,-99,0.00,NA,NA,-99.99,WeatherLink_script,2013-03-02 15:58:00,
2013-03-02 11:03:00,32.7,-99.9,0.00,North,359,4.5,6.0,-99,0.00,NA,NA,-99.99,WeatherLink_script,2013-03-02 16:03:00,
2013-03-02 11:09:00,32.9,-99.9,0.00,NNW,348,4.0,6.0,-99,0.00,NA,NA,-99.99,WeatherLink_script,2013-03-02 16:09:00,
2013-03-02 11:14:00,33.1,-99.9,0.00,NNW,347,4.6,5.0,-99,0.00,NA,NA,-99.99,WeatherLink_script,2013-03-02 16:14:00,
2013-03-02 11:19:00,33.2,-99.9,0.00,North,352,4.4,6.0,-99,0.00,NA,NA,-99.99,WeatherLink_script,2013-03-02 16:19:00,
2013-03-02 11:24:00,33.8,-99.9,0.00,North,0,4.1,6.0,-99,0.00,NA,NA,-99.99,WeatherLink_script,2013-03-02 16:24:00,
2013-03-02 11:29:00,33.1,-99.9,0.00,North,353,4.9,6.0,-99,0.00,NA,NA,-99.99,WeatherLink_script,2013-03-02 16:29:00,
2013-03-02 11:34:00,32.8,-99.9,0.00,NNW,347,4.8,7.0,-99,0.00,NA,NA,-99.99,WeatherLink_script,2013-03-02 16:34:00,
2013-03-02 11:40:00,32.1,-99.9,0.00,North,350,5.8,8.0,-99,0.00,NA,NA,-99.99,WeatherLink_script,2013-03-02 16:40:00,
2013-03-02 11:45:00,32.1,-99.9,0.00,North,357,6.0,8.0,-99,0.00,NA,NA,-99.99,WeatherLink_script,2013-03-02 16:45:00,
2013-03-02 11:50:00,32.3,-99.9,0.00,North,355,4.4,8.0,-99,0.00,NA,NA,-99.99,WeatherLink_script,2013-03-02 16:50:00,
2013-03-02 11:56:00,33.0,-99.9,0.00,North,4,4.4,9.0,-99,0.00,NA,NA,-99.99,WeatherLink_script,2013-03-02 16:56:00,
2013-03-02 12:01:00,33.1,-99.9,0.00,North,4,7.6,10.0,-99,0.00,NA,NA,-99.99,WeatherLink_script,2013-03-02 17:01:00,
2013-03-02 12:06:00,32.7,-99.9,0.00,North,5,5.7,11.0,-99,0.00,NA,NA,-99.99,WeatherLink_script,2013-03-02 17:06:00,
2013-03-02 12:12:00,33.3,-99.9,0.00,North,5,5.5,11.0,-99,0.00,NA,NA,-99.99,WeatherLink_script,2013-03-02 17:12:00,
2013-03-02 12:17:00,33.7,-99.9,0.00,North,7,4.5,11.0,-99,0.00,NA,NA,-99.99,WeatherLink_script,2013-03-02 17:17:00,
2013-03-02 12:22:00,33.5,-99.9,0.00,North,6,3.2,7.0,-99,0.00,NA,NA,-99.99,WeatherLink_script,2013-03-02 17:22:00,
2013-03-02 12:28:00,33.6,-99.9,0.00,North,359,4.2,7.0,-99,0.00,NA,NA,-99.99,WeatherLink_script,2013-03-02 17:28:00,
2013-03-02 12:33:00,34.0,-99.9,0.00,North,353,3.7,7.0,-99,0.00,NA,NA,-99.99,WeatherLink_script,2013-03-02 17:33:00,
2013-03-02 12:38:00,34.3,-99.9,0.00,North,356,4.2,5.0,-99,0.00,NA,NA,-99.99,WeatherLink_script,2013-03-02 17:38:00,
2013-03-02 12:44:00,34.6,-99.9,0.00,NNW,339,3.9,5.0,-99,0.00,NA,NA,-99.99,WeatherLink_script,2013-03-02 17:44:00,
2013-03-02 12:49:00,34.3,-99.9,0.00,North,352,4.4,6.0,-99,0.00,NA,NA,-99.99,WeatherLink_script,2013-03-02 17:49:00,
2013-03-02 12:54:00,34.7,-99.9,0.00,North,353,3.5,6.0,-99,0.00,NA,NA,-99.99,WeatherLink_script,2013-03-02 17:54:00,
2013-03-02 13:00:00,34.0,-99.9,0.00,NNW,343,4.0,6.0,-99,0.00,NA,NA,-99.99,WeatherLink_script,2013-03-02 18:00:00,
2013-03-02 13:05:00,34.5,-99.9,0.00,North,351,3.9,6.0,-99,0.00,NA,NA,-99.99,WeatherLink_script,2013-03-02 18:05:00,
2013-03-02 13:10:00,34.7,-99.9,0.00,North,358,4.8,7.0,-99,0.00,NA,NA,-99.99,WeatherLink_script,2013-03-02 18:10:00,
2013-03-02 13:15:00,35.0,-99.9,0.00,North,7,5.8,10.0,-99,0.00,NA,NA,-99.99,WeatherLink_script,2013-03-02 18:15:00,
2013-03-02 13:21:00,35.5,-99.9,0.00,North,6,4.8,10.0,-99,0.00,NA,NA,-99.99,WeatherLink_script,2013-03-02 18:21:00,
2013-03-02 13:26:00,36.2,-99.9,0.00,North,11,3.1,10.0,-99,0.00,NA,NA,-99.99,WeatherLink_script,2013-03-02 18:26:00,
2013-03-02 13:31:00,36.5,-99.9,0.00,NNE,25,1.3,6.0,-99,0.00,NA,NA,-99.99,WeatherLink_script,2013-03-02 18:31:00,
2013-03-02 13:37:00,34.8,-99.9,0.00,North,0,3.9,6.0,-99,0.00,NA,NA,-99.99,WeatherLink_script,2013-03-02 18:37:00,
2013-03-02 13:42:00,35.0,-99.9,0.00,North,4,6.0,8.0,-99,0.00,NA,NA,-99.99,WeatherLink_script,2013-03-02 18:42:00,
2013-03-02 13:47:00,34.7,-99.9,0.00,North,1,6.4,8.0,-99,0.00,NA,NA,-99.99,WeatherLink_script,2013-03-02 18:47:00,
2013-03-02 13:53:00,34.5,-99.9,0.00,North,359,3.9,8.0,-99,0.00,NA,NA,-99.99,WeatherLink_script,2013-03-02 18:53:00,
2013-03-02 13:58:00,35.7,-99.9,0.00,North,11,2.3,8.0,-99,0.00,NA,NA,-99.99,WeatherLink_script,2013-03-02 18:58:00,
2013-03-02 14:04:00,36.1,-99.9,0.00,North,359,3.7,6.0,-99,0.00,NA,NA,-99.99,WeatherLink_script,2013-03-02 19:04:00,
2013-03-02 14:09:00,35.2,-99.9,0.00,North,8,5.6,8.0,-99,0.00,NA,NA,-99.99,WeatherLink_script,2013-03-02 19:09:00,
2013-03-02 14:14:00,34.7,-99.9,0.00,ENE,67,2.1,11.0,-99,0.00,NA,NA,-99.99,WeatherLink_script,2013-03-02 19:14:00,
2013-03-02 14:19:00,35.1,-99.9,0.00,NNE,18,3.7,11.0,-99,0.00,NA,NA,-99.99,WeatherLink_script,2013-03-02 19:19:00,
2013-03-02 14:25:00,34.6,-99.9,0.00,NNE,32,3.8,11.0,-99,0.00,NA,NA,-99.99,WeatherLink_script,2013-03-02 19:25:00,
2013-03-02 14:30:00,33.1,-99.9,0.00,North,6,6.4,10.0,-99,0.00,NA,NA,-99.99,WeatherLink_script,2013-03-02 19:30:00,
2013-03-02 14:35:00,33.3,-99.9,0.00,North,11,4.1,10.0,-99,0.00,NA,NA,-99.99,WeatherLink_script,2013-03-02 19:35:00,
2013-03-02 14:41:00,32.3,-99.9,0.00,North,359,4.8,10.0,-99,0.00,NA,NA,-99.99,WeatherLink_script,2013-03-02 19:41:00,
2013-03-02 14:46:00,31.9,-99.9,0.00,North,1,5.8,7.0,-99,0.00,NA,NA,-99.99,WeatherLink_script,2013-03-02 19:46:00,
2013-03-02 14:51:00,32.1,-99.9,0.00,North,2,5.9,9.0,-99,0.00,NA,NA,-99.99,WeatherLink_script,2013-03-02 19:51:00,
2013-03-02 14:57:00,32.1,-99.9,0.00,North,8,4.8,9.0,-99,0.00,NA,NA,-99.99,WeatherLink_script,2013-03-02 19:57:00,
2013-03-02 15:02:00,32.3,-99.9,0.00,North,9,2.8,9.0,-99,0.00,NA,NA,-99.99,WeatherLink_script,2013-03-02 20:02:00,
2013-03-02 15:07:00,32.4,-99.9,0.00,North,359,4.1,5.0,-99,0.00,NA,NA,-99.99,WeatherLink_script,2013-03-02 20:07:00,
2013-03-02 15:13:00,31.9,-99.9,0.00,North,353,4.1,7.0,-99,0.00,NA,NA,-99.99,WeatherLink_script,2013-03-02 20:13:00,
2013-03-02 15:18:00,31.3,-99.9,0.00,North,6,6.5,9.0,-99,0.00,NA,NA,-99.99,WeatherLink_script,2013-03-02 20:18:00,
2013-03-02 15:23:00,31.4,-99.9,0.00,NNE,28,5.4,9.0,-99,0.00,NA,NA,-99.99,WeatherLink_script,2013-03-02 20:23:00,
2013-03-02 15:29:00,31.4,-99.9,0.00,NNE,24,4.7,9.0,-99,0.00,NA,NA,-99.99,WeatherLink_script,2013-03-02 20:29:00,
2013-03-02 15:34:00,31.2,-99.9,0.00,North,9,4.1,9.0,-99,0.00,NA,NA,-99.99,WeatherLink_script,2013-03-02 20:34:00,
2013-03-02 15:39:00,30.9,-99.9,0.00,North,5,5.2,9.0,-99,0.00,NA,NA,-99.99,WeatherLink_script,2013-03-02 20:39:00,
2013-03-02 15:44:00,30.9,-99.9,0.00,NNE,16,3.4,7.0,-99,0.00,NA,NA,-99.99,WeatherLink_script,2013-03-02 20:44:00,
2013-03-02 15:50:00,30.9,-99.9,0.00,North,7,3.9,7.0,-99,0.00,NA,NA,-99.99,WeatherLink_script,2013-03-02 20:50:00,
2013-03-02 15:55:00,30.9,-99.9,0.00,North,9,3.4,7.0,-99,0.00,NA,NA,-99.99,WeatherLink_script,2013-03-02 20:55:00,
2013-03-02 16:00:00,30.5,-99.9,0.00,North,358,3.9,5.0,-99,0.00,NA,NA,-99.99,WeatherLink_script,2013-03-02 21:00:00,
2013-03-02 16:06:00,30.0,-99.9,0.00,North,7,5.2,7.0,-99,0.00,NA,NA,-99.99,WeatherLink_script,2013-03-02 21:06:00,
2013-03-02 16:11:00,29.7,-99.9,0.00,North,5,6.5,8.0,-99,0.00,NA,NA,-99.99,WeatherLink_script,2013-03-02 21:11:00,
2013-03-02 16:16:00,29.6,-99.9,0.00,North,9,4.3,8.0,-99,0.00,NA,NA,-99.99,WeatherLink_script,2013-03-02 21:16:00,
2013-03-02 16:22:00,29.6,-99.9,0.00,North,3,5.0,8.0,-99,0.00,NA,NA,-99.99,WeatherLink_script,2013-03-02 21:22:00,
2013-03-02 16:27:00,29.3,-99.9,0.00,North,0,4.7,8.0,-99,0.00,NA,NA,-99.99,WeatherLink_script,2013-03-02 21:27:00,
2013-03-02 16:32:00,29.1,-99.9,0.00,North,355,4.4,6.0,-99,0.00,NA,NA,-99.99,WeatherLink_script,2013-03-02 21:32:00,
2013-03-02 16:38:00,29.0,-99.9,0.00,North,358,4.2,7.0,-99,0.00,NA,NA,-99.99,WeatherLink_script,2013-03-02 21:38:00,
2013-03-02 16:43:00,28.9,-99.9,0.00,North,354,3.2,7.0,-99,0.00,NA,NA,-99.99,WeatherLink_script,2013-03-02 21:43:00,
2013-03-02 16:48:00,28.6,-99.9,0.00,North,0,4.8,7.0,-99,0.00,NA,NA,-99.99,WeatherLink_script,2013-03-02 21:48:00,
2013-03-02 16:53:00,28.5,-99.9,0.00,North,0,4.5,6.0,-99,0.00,NA,NA,-99.99,WeatherLink_script,2013-03-02 21:53:00,
2013-03-02 16:58:00,28.5,-99.9,0.00,North,0,4.3,10.0,-99,0.00,NA,NA,-99.99,WeatherLink_script,2013-03-02 21:58:00,
2013-03-02 17:04:00,28.2,-99.9,0.00,North,0,5.5,10.0,-99,0.00,NA,NA,-99.99,WeatherLink_script,2013-03-02 22:04:00,
2013-03-02 17:09:00,28.0,-99.9,0.00,North,0,3.9,10.0,-99,0.00,NA,NA,-99.99,WeatherLink_script,2013-03-02 22:09:00,
2013-03-02 17:15:00,27.7,-99.9,0.00,North,0,5.5,7.0,-99,0.00,NA,NA,-99.99,WeatherLink_script,2013-03-02 22:15:00,
2013-03-02 17:20:00,27.6,-99.9,0.00,North,0,3.3,7.0,-99,0.00,NA,NA,-99.99,WeatherLink_script,2013-03-02 22:20:00,
2013-03-02 17:25:00,27.5,-99.9,0.00,North,0,3.6,7.0,-99,0.00,NA,NA,-99.99,WeatherLink_script,2013-03-02 22:25:00,
2013-03-02 17:30:00,27.5,-99.9,0.00,North,0,3.9,7.0,-98,0.00,NA,NA,-99.99,WeatherLink_script,2013-03-02 22:30:00,
2013-03-02 17:36:00,27.4,-99.9,0.00,North,0,3.7,6.0,-99,0.00,NA,NA,-99.99,WeatherLink_script,2013-03-02 22:36:00,
2013-03-02 17:41:00,27.0,-99.9,0.00,North,0,2.1,6.0,-99,0.00,NA,NA,-99.99,WeatherLink_script,2013-03-02 22:41:00,
2013-03-02 17:47:00,26.8,-99.9,0.00,North,0,1.8,6.0,-99,0.00,NA,NA,-99.99,WeatherLink_script,2013-03-02 22:47:00,
2013-03-02 17:52:00,26.6,-99.9,0.00,North,0,2.0,2.0,-99,0.00,NA,NA,-99.99,WeatherLink_script,2013-03-02 22:52:00,
2013-03-02 17:57:00,26.5,-99.9,0.00,North,0,1.6,3.0,-99,0.00,NA,NA,-99.99,WeatherLink_script,2013-03-02 22:57:00,
2013-03-02 18:02:00,26.4,-99.9,0.00,North,0,1.6,3.0,-99,0.00,NA,NA,-99.99,WeatherLink_script,2013-03-02 23:02:00,
2013-03-02 18:08:00,26.4,-99.9,0.00,North,0,1.0,3.0,-99,0.00,NA,NA,-99.99,WeatherLink_script,2013-03-02 23:08:00,
2013-03-02 18:13:00,26.3,-99.9,0.00,North,0,2.0,3.0,-99,0.00,NA,NA,-99.99,WeatherLink_script,2013-03-02 23:13:00,
2013-03-02 18:18:00,26.3,-99.9,0.00,North,0,1.7,3.0,-99,0.00,NA,NA,-99.99,WeatherLink_script,2013-03-02 23:18:00,
2013-03-02 18:24:00,26.3,-99.9,0.00,North,0,1.4,2.0,-99,0.00,NA,NA,-99.99,WeatherLink_script,2013-03-02 23:24:00,
2013-03-02 18:29:00,26.2,-99.9,0.00,North,0,1.2,2.0,-99,0.00,NA,NA,-99.99,WeatherLink_script,2013-03-02 23:29:00,
2013-03-02 18:34:00,26.2,-99.9,0.00,North,0,1.5,2.0,-99,0.00,NA,NA,-99.99,WeatherLink_script,2013-03-02 23:34:00,
2013-03-02 18:40:00,26.1,-99.9,0.00,North,0,1.9,2.0,-99,0.00,NA,NA,-99.99,WeatherLink_script,2013-03-02 23:40:00,
2013-03-02 18:45:00,26.2,-99.9,0.00,North,0,1.9,4.0,-99,0.00,NA,NA,-99.99,WeatherLink_script,2013-03-02 23:45:00,
2013-03-02 18:50:00,26.1,-99.9,0.00,North,0,1.4,4.0,-99,0.00,NA,NA,-99.99,WeatherLink_script,2013-03-02 23:50:00,
2013-03-02 18:55:00,26.0,-99.9,0.00,North,0,1.4,4.0,-99,0.00,NA,NA,-99.99,WeatherLink_script,2013-03-02 23:55:00,
2013-03-02 19:01:00,26.0,-99.9,0.00,North,0,2.5,4.0,-99,0.00,NA,NA,-99.99,WeatherLink_script,2013-03-03 00:01:00,
2013-03-02 19:06:00,26.0,-99.9,0.00,North,0,1.8,2.0,-99,0.00,NA,NA,-99.99,WeatherLink_script,2013-03-03 00:06:00,
2013-03-02 19:11:00,26.0,-99.9,0.00,North,0,2.9,3.0,-99,0.00,NA,NA,-99.99,WeatherLink_script,2013-03-03 00:11:00,
2013-03-02 19:17:00,26.0,-99.9,0.00,North,0,2.9,4.0,-99,0.00,NA,NA,-99.99,WeatherLink_script,2013-03-03 00:17:00,
2013-03-02 19:22:00,26.0,-99.9,0.00,North,0,3.6,4.0,-99,0.00,NA,NA,-99.99,WeatherLink_script,2013-03-03 00:22:00,
2013-03-02 19:27:00,25.9,-99.9,0.00,North,0,3.4,5.0,-99,0.00,NA,NA,-99.99,WeatherLink_script,2013-03-03 00:27:00,
2013-03-02 19:33:00,25.7,-99.9,0.00,North,0,3.2,6.0,-99,0.00,NA,NA,-99.99,WeatherLink_script,2013-03-03 00:33:00,
2013-03-02 19:38:00,25.6,-99.9,0.00,North,0,3.3,6.0,-99,0.00,NA,NA,-99.99,WeatherLink_script,2013-03-03 00:38:00,
2013-03-02 19:43:00,25.5,-99.9,0.00,North,0,3.9,6.0,-99,0.00,NA,NA,-99.99,WeatherLink_script,2013-03-03 00:43:00,
2013-03-02 19:49:00,25.4,-99.9,0.00,North,0,3.8,5.0,-99,0.00,NA,NA,-99.99,WeatherLink_script,2013-03-03 00:49:00,
2013-03-02 19:54:00,25.4,-99.9,0.00,North,0,3.0,5.0,-99,0.00,NA,NA,-99.99,WeatherLink_script,2013-03-03 00:54:00,
2013-03-02 19:59:00,25.2,-99.9,0.00,North,0,3.3,6.0,-99,0.00,NA,NA,-99.99,WeatherLink_script,2013-03-03 00:59:00,
2013-03-02 20:04:00,25.1,-99.9,0.00,North,0,3.1,6.0,-99,0.00,NA,NA,-99.99,WeatherLink_script,2013-03-03 01:04:00,
2013-03-02 20:10:00,25.0,-99.9,0.00,North,0,2.2,6.0,-99,0.00,NA,NA,-99.99,WeatherLink_script,2013-03-03 01:10:00,
2013-03-02 20:15:00,25.0,-99.9,0.00,North,0,2.9,3.0,-99,0.00,NA,NA,-99.99,WeatherLink_script,2013-03-03 01:15:00,
2013-03-02 20:21:00,24.9,-99.9,0.00,North,0,3.4,5.0,-99,0.00,NA,NA,-99.99,WeatherLink_script,2013-03-03 01:21:00,
2013-03-02 20:26:00,24.9,-99.9,0.00,North,0,3.7,6.0,-99,0.00,NA,NA,-99.99,WeatherLink_script,2013-03-03 01:26:00,
2013-03-02 20:31:00,24.8,-99.9,0.00,North,0,4.0,6.0,-99,0.00,NA,NA,-99.99,WeatherLink_script,2013-03-03 01:31:00,
2013-03-02 20:36:00,24.8,-99.9,0.00,North,0,3.3,6.0,-99,0.00,NA,NA,-99.99,WeatherLink_script,2013-03-03 01:36:00,
2013-03-02 20:42:00,24.6,-99.9,0.00,North,0,3.6,4.0,-99,0.00,NA,NA,-99.99,WeatherLink_script,2013-03-03 01:42:00,
2013-03-02 20:47:00,24.5,-99.9,0.00,North,0,3.7,5.0,-99,0.00,NA,NA,-99.99,WeatherLink_script,2013-03-03 01:47:00,
2013-03-02 20:52:00,24.5,-99.9,0.00,North,0,3.6,5.0,-99,0.00,NA,NA,-99.99,WeatherLink_script,2013-03-03 01:52:00,
2013-03-02 20:58:00,24.5,-99.9,0.00,North,0,3.7,5.0,-99,0.00,NA,NA,-99.99,WeatherLink_script,2013-03-03 01:58:00,
2013-03-02 21:03:00,24.5,-99.9,0.00,North,0,4.0,7.0,-99,0.00,NA,NA,-99.99,WeatherLink_script,2013-03-03 02:03:00,
2013-03-02 21:09:00,24.4,-99.9,0.00,North,0,3.0,7.0,-99,0.00,NA,NA,-99.99,WeatherLink_script,2013-03-03 02:09:00,
2013-03-02 21:14:00,24.2,-99.9,0.00,North,0,3.4,7.0,-99,0.00,NA,NA,-99.99,WeatherLink_script,2013-03-03 02:14:00,
2013-03-02 21:19:00,24.2,-99.9,0.00,North,0,3.9,5.0,-99,0.00,NA,NA,-99.99,WeatherLink_script,2013-03-03 02:19:00,
2013-03-02 21:25:00,24.0,-99.9,0.00,North,0,3.2,5.0,-99,0.00,NA,NA,-99.99,WeatherLink_script,2013-03-03 02:25:00,
2013-03-02 21:30:00,24.0,-99.9,0.00,North,0,3.5,5.0,-99,0.00,NA,NA,-99.99,WeatherLink_script,2013-03-03 02:30:00,
2013-03-02 21:35:00,24.0,-99.9,0.00,North,0,3.0,4.0,-99,0.00,NA,NA,-99.99,WeatherLink_script,2013-03-03 02:35:00,
2013-03-02 21:40:00,24.0,-99.9,0.00,North,0,3.0,4.0,-99,0.00,NA,NA,-99.99,WeatherLink_script,2013-03-03 02:40:00,
2013-03-02 21:46:00,23.8,-99.9,0.00,North,0,2.9,4.0,-99,0.00,NA,NA,-99.99,WeatherLink_script,2013-03-03 02:46:00,
2013-03-02 21:51:00,23.7,-99.9,0.00,North,0,1.7,4.0,-99,0.00,NA,NA,-99.99,WeatherLink_script,2013-03-03 02:51:00,
2013-03-02 21:57:00,23.7,-99.9,0.00,North,0,1.8,4.0,-99,0.00,NA,NA,-99.99,WeatherLink_script,2013-03-03 02:57:00,
2013-03-02 22:02:00,23.6,-99.9,0.00,North,0,1.2,1.2,-99,0.00,NA,NA,-99.99,WeatherLink_script,2013-03-03 03:02:00,
2013-03-02 22:07:00,23.6,-99.9,0.00,North,0,1.8,4.0,-99,0.00,NA,NA,-99.99,WeatherLink_script,2013-03-03 03:07:00,
2013-03-02 22:13:00,23.5,-99.9,0.00,North,0,2.1,4.0,-99,0.00,NA,NA,-99.99,WeatherLink_script,2013-03-03 03:13:00,
2013-03-02 22:18:00,23.5,-99.9,0.00,North,0,2.1,4.0,-99,0.00,NA,NA,-99.99,WeatherLink_script,2013-03-03 03:18:00,
2013-03-02 22:23:00,23.5,-99.9,0.00,North,0,2.4,2.4,-99,0.00,NA,NA,-99.99,WeatherLink_script,2013-03-03 03:23:00,
2013-03-02 22:29:00,23.3,-99.9,0.00,North,0,1.9,3.0,-99,0.00,NA,NA,-99.99,WeatherLink_script,2013-03-03 03:29:00,
2013-03-02 22:34:00,23.3,-99.9,0.00,North,0,2.0,3.0,-99,0.00,NA,NA,-99.99,WeatherLink_script,2013-03-03 03:34:00,
2013-03-02 22:39:00,23.2,-99.9,0.00,North,0,1.4,3.0,-99,0.00,NA,NA,-99.99,WeatherLink_script,2013-03-03 03:39:00,
2013-03-02 22:45:00,23.2,-99.9,0.00,North,0,1.0,2.0,-99,0.00,NA,NA,-99.99,WeatherLink_script,2013-03-03 03:45:00,
2013-03-02 22:50:00,23.2,-99.9,0.00,North,0,1.1,2.0,-99,0.00,NA,NA,-99.99,WeatherLink_script,2013-03-03 03:50:00,
2013-03-02 22:55:00,23.1,-99.9,0.00,North,0,1.7,2.0,-99,0.00,NA,NA,-99.99,WeatherLink_script,2013-03-03 03:55:00,
2013-03-02 23:01:00,23.0,-99.9,0.00,North,0,1.3,2.0,-99,0.00,NA,NA,-99.99,WeatherLink_script,2013-03-03 04:01:00,
2013-03-02 23:06:00,22.9,-99.9,0.00,North,0,1.7,2.0,-99,0.00,NA,NA,-99.99,WeatherLink_script,2013-03-03 04:06:00,
2013-03-02 23:12:00,22.7,-99.9,0.00,North,0,0.9,2.0,-99,0.00,NA,NA,-99.99,WeatherLink_script,2013-03-03 04:12:00,
2013-03-02 23:17:00,22.7,-99.9,0.00,North,0,0.7,2.0,-99,0.00,NA,NA,-99.99,WeatherLink_script,2013-03-03 04:17:00,
2013-03-02 23:22:00,22.6,-99.9,0.00,North,0,1.2,2.0,-99,0.00,NA,NA,-99.99,WeatherLink_script,2013-03-03 04:22:00,
2013-03-02 23:28:00,22.5,-99.9,0.00,North,0,1.2,2.0,-99,0.00,NA,NA,-99.99,WeatherLink_script,2013-03-03 04:28:00,
2013-03-02 23:33:00,22.5,-99.9,0.00,North,0,1.1,2.0,-99,0.00,NA,NA,-99.99,WeatherLink_script,2013-03-03 04:33:00,
2013-03-02 23:38:00,22.4,-99.9,0.00,North,0,1.1,1.1,-99,0.00,NA,NA,-99.99,WeatherLink_script,2013-03-03 04:38:00,
2013-03-02 23:43:00,22.4,-99.9,0.00,North,0,1.9,2.0,-99,0.00,NA,NA,-99.99,WeatherLink_script,2013-03-03 04:43:00,
2013-03-02 23:49:00,22.4,-99.9,0.00,North,0,2.0,2.0,-99,0.00,NA,NA,-99.99,WeatherLink_script,2013-03-03 04:49:00,
2013-03-02 23:54:00,22.3,-99.9,0.00,North,0,1.3,2.0,-99,0.00,NA,NA,-99.99,WeatherLink_script,2013-03-03 04:54:00,
2013-03-02 23:59:00,22.2,-99.9,0.00,North,0,1.5,2.0,-99,0.00,NA,NA,-99.99,WeatherLink_script,2013-03-03 04:59:00,